Regional Weather Roundup
Issued by NWS

Home | Current Version | Previous Version | Graphics & Text | Print | Product List | Glossary Off
Versions: 1 2 3 4 5 6 7 8 9 10 11 12 13 14 15 16 17 18 19 20 21 22 23 24 25 26 27 28 29 30 31 32 33 34 35 36 37 38 39 40 41 42 43 44 45 46 47 48 49 50

000
ASUS43 KTOP 241859
RWRKS

WEATHER ROUNDUP FOR KANSAS
NATIONAL WEATHER SERVICE GOODLAND KS
100 PM CST FRI NOV 24 2017

NOTE:  "FAIR" INDICATES FEW OR NO CLOUDS BELOW 12,000 FEET WITH NO
SIGNIFICANT WEATHER AND/OR OBSTRUCTIONS TO VISIBILITY.

KSZ001>006-013>018-027>032-041>047-242000-
NORTHWEST KANSAS

CITY           SKY/WX    TMP DP  RH WIND       PRES   REMARKS
GOODLAND       CLOUDY    70  33  25 N12       29.78S
HAYS           SUNNY     83  34  17 NW22      29.66F
HILL CITY      SUNNY     82  31  15 NW25G52   29.68F
RUSSELL        CLOUDY    84  35  17 NW20G25   29.64F
$$

KSZ061>065-074>080-084>089-242000-
SOUTHWEST KANSAS

CITY           SKY/WX    TMP DP  RH WIND       PRES   REMARKS
DODGE CITY     SUNNY     75  38  26 S7        29.69F
GARDEN CITY    SUNNY     73  30  20 NE5       29.71F
GREAT BEND     MOSUNNY   80  37  21 VRB5      29.67F
LIBERAL        SUNNY     77  29  17 N7        29.71F
$$

KSZ066>073-081>083-090>101-242000-
SOUTHEAST KANSAS

CITY           SKY/WX    TMP DP  RH WIND       PRES   REMARKS
CHANUTE        SUNNY     70  37  29 S21G30    29.68F
COFFEYVILLE    SUNNY     70  38  31 S12       29.71F
HUTCHINSON     SUNNY     78  40  25 S10       29.66F
MEDICINE LODGE   N/A     73  39  29 NE3       29.69F
NEWTON         SUNNY     73  39  29 SW15      29.67F
PARSONS        SUNNY     70  37  29 S14G23    29.71F
WICHITA INTL   MOSUNNY   71  40  32 S16       29.68F
WICHITA JABRA  SUNNY     71  38  29 SW16      29.67F
WICHITA MCCONL SUNNY     71  37  29 SW13      29.68F
WINFIELD       SUNNY     76  39  26 SW15G22   29.70F
$$

KSZ007>012-019>026-033>040-048>060-102>105-242000-
NORTHEAST KANSAS

CITY           SKY/WX    TMP DP  RH WIND       PRES   REMARKS
CONCORDIA      CLOUDY    82  35  18 NW20G35   29.57F
EMPORIA        SUNNY     73  38  27 SW17      29.62F
LAWRENCE       SUNNY     71  38  29 SW16G25   29.59F
MANHATTAN      SUNNY     77  40  26 SW13      29.58F
OLATHE IND     SUNNY     69  38  32 SW22      29.61F
OLATHE EXE     SUNNY     70  38  31 SW14G26   29.59F
SALINA         SUNNY     85  39  19 W17G25    29.61F
TOPEKA BILLARD SUNNY     73  39  29 SW14      29.57F
TOPEKA FORBES  SUNNY     75  39  27 SW20      29.57F
$$



USA.gov is the U.S. government's official web portal to all federal, state and local government web resources and services.